Weather History for Marco Island Airport, FL

Change the Weather History Date:

Wednesday, January 1, 2014

  Actual Average (KAPF) Record (KAPF)
Temperature  
Mean Temperature 74 °F 65 °F  
Max Temperature 87 °F 75 °F 86 °F (1973)
Min Temperature 62 °F 55 °F 39 °F (1981)
Degree Days  
Heating Degree Days 0 3  
Month to date heating degree days 3  
Since 1 July heating degree days 81  
Cooling Degree Days 10 3  
Month to date cooling degree days 3  
Year to date cooling degree days 3  
Growing Degree Days 24 (Base 50)    
Moisture  
Dew Point -    
Average Humidity    
Maximum Humidity    
Minimum Humidity    
Precipitation  
Precipitation 0.00 in 0.06 in 1.23 in (2003)
Month to date precipitation 0.06  
Year to date precipitation 0.06  
Snow  
Snow 0.00 in - - ()
Month to date snowfall  
Since 1 July snowfall  
Snow Depth -    
Sea Level Pressure  
Sea Level Pressure 30.11 in    
Wind  
Wind Speed 9 mph (East)    
Max Wind Speed 15 mph    
Max Gust Speed 22 mph    
Visibility 10 miles    
Events      
T = Trace of Precipitation, MM = Missing Value Source: NWS Daily Summary

Daily Weather History Graph

Daily Weather History Graph

Search for Another Location

Airport:

Trip Planner

Search our weather history database for the weather conditions in past years. The results will help you decide how hot, cold, wet, or windy it might be!

Date:

Astronomy

Jan. 01, 2014 Rise Set
Actual Time 7:13 AM EST 5:46 PM EST
Civil Twilight 6:48 AM EST 6:12 PM EST
Nautical Twilight 6:20 AM EST 6:40 PM EST
Astronomical Twilight 5:51 AM EST 7:08 PM EST
Moon 7:09 AM EST (1/1) 6:22 PM EST (1/1)
Length of Visible Light 11h 23m
Length of Day
10h 33m
New Moon, 0% of the Moon is Illuminated
Jan 1
New Moon
Jan 7
First Quarter
Jan 15
Full
Jan 24
Last Quarter
Jan 30
New

Hourly Weather History & Observations

Time (EST) Temp. Dew Point Humidity Pressure Visibility Wind Dir Wind Speed Gust Speed Precip Events Conditions
12:15 AM 66.2 °F - N/A% 30.18 in 10.0 mi NE 10.4 mph - N/A   Clear
12:35 AM 64.4 °F - N/A% 30.18 in 10.0 mi NE 9.2 mph - N/A   Clear
12:55 AM 64.4 °F - N/A% 30.18 in 10.0 mi NE 9.2 mph - N/A   Clear
1:15 AM 64.4 °F - N/A% 30.17 in 10.0 mi NE 6.9 mph - N/A   Clear
1:35 AM 64.4 °F - N/A% 30.16 in 10.0 mi NE 6.9 mph - N/A   Clear
1:55 AM 64.4 °F - N/A% 30.16 in 10.0 mi NE 6.9 mph - N/A   Mostly Cloudy
2:15 AM 64.4 °F - N/A% 30.15 in 10.0 mi NE 6.9 mph - N/A   Mostly Cloudy
2:35 AM 64.4 °F - N/A% 30.15 in 10.0 mi NNE 9.2 mph - N/A   Partly Cloudy
2:55 AM 64.4 °F - N/A% 30.15 in 10.0 mi NE 8.1 mph - N/A   Mostly Cloudy
3:15 AM 64.4 °F - N/A% 30.15 in 10.0 mi NE 10.4 mph - N/A   Overcast
3:35 AM 64.4 °F - N/A% 30.15 in 10.0 mi NNE 9.2 mph - N/A   Mostly Cloudy
3:55 AM 64.4 °F - N/A% 30.15 in 10.0 mi NNE 8.1 mph - N/A   Clear
4:15 AM 62.6 °F - N/A% 30.14 in 10.0 mi NE 9.2 mph - N/A   Partly Cloudy
4:35 AM 64.4 °F - N/A% 30.14 in 10.0 mi NE 8.1 mph - N/A   Mostly Cloudy
4:55 AM 64.4 °F - N/A% 30.14 in 10.0 mi NE 8.1 mph - N/A   Overcast
5:15 AM 64.4 °F - N/A% 30.14 in 10.0 mi NE 6.9 mph - N/A   Overcast
5:35 AM 66.2 °F - N/A% 30.15 in 10.0 mi NE 6.9 mph - N/A   Overcast
5:55 AM 66.2 °F - N/A% 30.15 in 10.0 mi ENE 6.9 mph - N/A   Overcast
6:15 AM 66.2 °F - N/A% 30.15 in 10.0 mi NE 6.9 mph - N/A   Overcast
6:35 AM 66.2 °F - N/A% 30.15 in 10.0 mi NE 6.9 mph - N/A   Mostly Cloudy
6:55 AM 66.2 °F - N/A% 30.15 in 10.0 mi NE 6.9 mph - N/A   Scattered Clouds
7:15 AM 66.2 °F - N/A% 30.16 in 10.0 mi NNE 8.1 mph - N/A   Mostly Cloudy
7:35 AM 66.2 °F - N/A% 30.17 in 10.0 mi NE 10.4 mph - N/A   Overcast
7:55 AM 66.2 °F - N/A% 30.17 in 10.0 mi NE 9.2 mph - N/A   Scattered Clouds
8:15 AM 66.2 °F - N/A% 30.17 in 10.0 mi NE 6.9 mph - N/A   Partly Cloudy
8:35 AM 68.0 °F - N/A% 30.18 in 10.0 mi ENE 9.2 mph - N/A   Clear
8:55 AM 69.8 °F - N/A% 30.18 in 10.0 mi East 10.4 mph - N/A   Clear
9:15 AM 73.4 °F - N/A% 30.18 in 10.0 mi ENE 10.4 mph - N/A   Mostly Cloudy
9:35 AM 73.4 °F - N/A% 30.18 in 10.0 mi East 11.5 mph - N/A   Overcast
9:55 AM 75.2 °F - N/A% 30.18 in 10.0 mi East 6.9 mph - N/A   Overcast
10:15 AM 78.8 °F - N/A% 30.17 in 10.0 mi ESE 12.7 mph - N/A   Mostly Cloudy
10:35 AM 80.6 °F - N/A% 30.16 in 10.0 mi ESE 13.8 mph 19.6 mph N/A   Partly Cloudy
10:55 AM 82.4 °F - N/A% 30.16 in 10.0 mi ESE 11.5 mph 21.9 mph N/A   Clear
11:15 AM 84.2 °F - N/A% 30.15 in 10.0 mi ESE 13.8 mph 20.7 mph N/A   Clear
11:35 AM 84.2 °F - N/A% 30.14 in 10.0 mi ESE 13.8 mph - N/A   Scattered Clouds
11:55 AM 84.2 °F - N/A% 30.13 in 10.0 mi ESE 12.7 mph - N/A   Mostly Cloudy
12:15 PM 87.8 °F - N/A% 30.12 in 10.0 mi SE 11.5 mph 18.4 mph N/A   Scattered Clouds
12:35 PM 87.8 °F - N/A% 30.11 in 10.0 mi SE 15.0 mph 20.7 mph N/A   Clear
12:55 PM 87.8 °F - N/A% 30.10 in 10.0 mi SE 15.0 mph 19.6 mph N/A   Clear
1:15 PM 87.8 °F - N/A% 30.09 in 10.0 mi SE 9.2 mph - N/A   Scattered Clouds
1:35 PM 87.8 °F - N/A% 30.08 in 10.0 mi South 11.5 mph - N/A   Mostly Cloudy
1:55 PM 87.8 °F - N/A% 30.07 in 10.0 mi SSE 13.8 mph - N/A   Partly Cloudy
2:15 PM 86.0 °F - N/A% 30.06 in 10.0 mi SSE 11.5 mph - N/A   Partly Cloudy
2:35 PM 86.0 °F - N/A% 30.06 in 10.0 mi South 12.7 mph 17.3 mph N/A   Clear
2:55 PM 86.0 °F - N/A% 30.06 in 10.0 mi South 11.5 mph - N/A   Clear
3:15 PM 86.0 °F - N/A% 30.06 in 10.0 mi South 9.2 mph - N/A   Scattered Clouds
3:35 PM 86.0 °F - N/A% 30.06 in 10.0 mi SSE 9.2 mph - N/A   Partly Cloudy
3:55 PM 86.0 °F - N/A% 30.05 in 10.0 mi South 11.5 mph - N/A   Clear
4:15 PM 84.2 °F - N/A% 30.05 in 10.0 mi SSE 9.2 mph - N/A   Clear
4:35 PM 84.2 °F - N/A% 30.05 in 10.0 mi SSE 10.4 mph - N/A   Clear
4:55 PM 82.4 °F - N/A% 30.05 in 10.0 mi SSE 5.8 mph - N/A   Clear
5:15 PM 82.4 °F - N/A% 30.05 in 10.0 mi SSE 8.1 mph - N/A   Clear
5:35 PM 80.6 °F - N/A% 30.05 in 10.0 mi SSE 5.8 mph - N/A   Clear
5:55 PM 78.8 °F - N/A% 30.05 in 10.0 mi SSE 4.6 mph - N/A   Clear
6:15 PM 75.2 °F - N/A% 30.05 in 10.0 mi SSE 6.9 mph - N/A   Clear
6:35 PM 75.2 °F - N/A% 30.06 in 10.0 mi SSE 5.8 mph - N/A   Clear
6:55 PM 73.4 °F - N/A% 30.06 in 10.0 mi SSE 4.6 mph - N/A   Clear
7:15 PM 73.4 °F - N/A% 30.06 in 10.0 mi ESE 3.5 mph - N/A   Clear
7:35 PM 73.4 °F - N/A% 30.07 in 10.0 mi East 4.6 mph - N/A   Clear
7:55 PM 71.6 °F - N/A% 30.07 in 10.0 mi East 4.6 mph - N/A   Clear
8:15 PM 71.6 °F - N/A% 30.07 in 10.0 mi ENE 5.8 mph - N/A   Partly Cloudy
8:35 PM 71.6 °F - N/A% 30.07 in 10.0 mi NE 6.9 mph - N/A   Clear
8:55 PM 71.6 °F - N/A% 30.07 in 10.0 mi NNE 5.8 mph - N/A   Clear
9:15 PM 69.8 °F - N/A% 30.07 in 10.0 mi East 4.6 mph - N/A   Clear
9:35 PM 69.8 °F - N/A% 30.07 in 10.0 mi East 5.8 mph - N/A   Clear
9:55 PM 69.8 °F - N/A% 30.07 in 10.0 mi NE 4.6 mph - N/A   Clear
10:15 PM 69.8 °F - N/A% 30.06 in 10.0 mi NE 5.8 mph - N/A   Clear
10:35 PM 69.8 °F - N/A% 30.06 in 10.0 mi NE 4.6 mph - N/A   Clear
10:55 PM 69.8 °F - N/A% 30.06 in 10.0 mi ENE 5.8 mph - N/A   Clear
11:15 PM 69.8 °F - N/A% 30.05 in 10.0 mi ENE 4.6 mph - N/A   Mostly Cloudy
11:35 PM 69.8 °F - N/A% 30.05 in 10.0 mi ENE 4.6 mph - N/A   Scattered Clouds
11:55 PM 69.8 °F - N/A% 30.04 in 10.0 mi East 4.6 mph - N/A   Clear